sat.trackr.live / text

‹ back to catalog

QIANFAN-144

NORAD 69090 · 2026-104T

PAYLOAD ACTIVE UNKNOWN

§ Identity

Operator
Country
PRC
Launch date
2026-05-12
Launch site
TAISC
Launch vehicle
Mass (kg)
RCS (m²)

External: N2YO · Heavens-Above · Gunter

§ Orbital elements

Epoch: 2026-05-25T04:12:52.538112Z

Period
101.12 min
Inclination
88.9867°
Eccentricity
0.0002783
Mean motion
14.24071070 rev/d
Perigee alt
809.6 km
Apogee alt
813.6 km
Semi-major
7,189.8 km
B*
3.2687e-5
RAAN
344.2450°
Arg perigee
153.5511°
Mean anomaly
206.5823°
Rev number
182

§ Raw data

QIANFAN-1441 69090U 26104T   26145.17560808  .00000090  00000+0  32687-4 0  99982 69090  88.9867 344.2450 0002783 153.5511 206.5823 14.24071070  1828

JSON: /api/v1/satellites/69090 · /tle

For live sub-satellite position, see the globe view (requires WebGL).

§ Visibility from observer

Set your observer location to see the next 7 days of passes ≥ 10°. The values pass through the URL so the page stays shareable.

No JS? Fill the form by hand. The geolocation button needs JavaScript.